Showing default

COSMOS 2582, 62903

Orbit data source: Space-Track

COSMOS 2582, 62903 is a payload satellite owned by MO RF (CIS) in LEO that was launched on Wed, 05 Feb 2025 UTC via a SOYUZ-2-1V launch vehicle from the Plesetsk Missile And Space Complex (PKMTR). Payload-class satellites include a variety of spacecraft equipped with specific instruments for various scientific and technological missions. These include communications satellites like Starlink; space stations such as the ISS; scientific satellites like the Hubble; Earth observation satellites from companies like Planet Labs, Umbra, and HawkEye 360; GPS; miniature CubeSats for education and research; and military/defense satellites.

Loading next visibility...
Identifier
62903, 2025-026B
Orbit
LEO
Last TLE update
18 hours ago
Origin
Manufacturer
VNIIEM
Mission
Operational Defense Imaging
Bus & Motor
EMKA, Unknown motor
Mass
~500 kg wet, 500 kg dry
Launch date (UTC)
2025-02-05 (5 months ago)
Launch vehicle
SOYUZ-2-1V
Launch site
Plesetsk Missile And Space Complex (PKMTR)
Object type
Payload
Rocket body
Debris
Shape & HBR
Cyl + 2 Pan, 3 m
Radar Cross Section
3.727 m², Medium (>0.1 m² and < 1m²)

Expand to show TLE details & history

TLE from 18 hours ago
0 COSMOS 2582
1 62903U 25026B   25174.91844264  .00000842  00000-0  77400-4 0  9998
2 62903  81.9967  79.6674 0011117 154.6091 205.5677 14.93662450 20709
Epoch: 2025-06-23T22:02Z
TLE epoch observation values (Epoch: 2025-06-23T22:02:33.444Z)
Latitude
0.00004°
Longitude
-163.29377°
Altitude
596.552 km
Speed
7.558 km/s
True Right ascension
05h 18m 40s
True Declination
0° 00' 00"
Sunlit
Object was in daylight at epoch
Visualization orbit readout
Latitude
22.89406°
Longitude
12.5411°
Altitude
581.69 km
Speed
7.576 km/s
Apparent Right ascension
16h 25m 29s
Apparent Declination
-7° 03' 51"
Sunlit
Object is in full shadow
Visualization observer readout
Local Sidereal Time
03:37:30
Azimuth
338.688° N
Elevation
-55.433°
Doppler factor
1
Orbital elements
Apogee altitude
591.294 km
Perigee altitude
575.815 km
Semi-major axis
6,961.692 km
Eccentricity
0.00111
Inclination
81.9967°
RAAN
79.6674°
Arg. of periapsis
154.6091°
True anomaly
Unknown
Mean anomaly
205.5677°
Eccentric anomaly
Unknown
Mean motion
3.73655 °/min
Orbital period
96.35 mins
BSTAR
0.0000774
Loading maneuver chart data...
Loading SW <> Apogee altitude chart data...
Loading historical data...
Loading historical data...
Loading historical data...
Loading historical data...
Loading historical data...
Loading historical data...
Loading historical data...

COSMOS 2582 Visibility forecast

Observer location: undefined°, undefined°

Span
Click to sort rows by Start time (UTC) header in descending order
Start Az.
Max El. time (UTC)
Max El. Az.
Max El.
End time (UTC)
End Az.
4 mins2025-06-24 17:28:40.778Z123.071° SE2025-06-24 17:30:40.778Z90.554° ESE17.42°2025-06-24 17:32:40.778Z56.513° ENE
5 mins2025-06-24 19:05:40.778Z235.556° WSW2025-06-24 19:07:40.778Z280.382° WNW27.857°2025-06-24 19:10:40.778Z340.901° N
6 mins2025-06-25 05:09:40.778Z7.371° NNE2025-06-25 05:12:40.778Z82.097° E37.962°2025-06-25 05:15:40.778Z151.661° SSE
|